Location: Bruch
(44.2051°N, 0.4120°E)
Time: 09:47:17
(UTC+00:00)

CENTAUR R/B - Pass Details

Date: 29 November 2020
Orbit: 750 x 1438 km, 63.4° (Epoch: 11 January)

Event Time Altitude Azimuth Distance (km) Brightness Sun altitude
Exits shadow 05:48:51 19° 282° (WNW) 2,841 4.3 -14.5°
Maximum altitude 05:52:07 23° 252° (WSW) 2,618 4.3 -13.9°
Drops below altitude 10° 05:58:34 10° 205° (SSW) 3,539 5.3 -12.8°
Sets 06:02:15 0° 192° (SSW) 4,504 6.0 -12.2°
